TimeEST,TemperatureF,Dew PointF,Humidity,Sea Level PressureIn,VisibilityMPH,Wind Direction,Wind SpeedMPH,Gust SpeedMPH,PrecipitationIn,Events,Conditions,WindDirDegrees,DateUTC
12:15 AM,24.8,17.6,74,30.20,10.0,NNW,5.8,-,N/A,,Clear,330,2012-12-26 05:15:00
12:35 AM,24.8,15.8,69,30.20,10.0,NNW,5.8,-,N/A,,Clear,340,2012-12-26 05:35:00
2:15 AM,23.0,14.0,68,30.24,10.0,North,6.9,-,N/A,,Clear,350,2012-12-26 07:15:00
2:35 AM,23.0,12.2,63,30.24,10.0,North,6.9,-,N/A,,Clear,350,2012-12-26 07:35:00
2:55 AM,21.2,12.2,68,30.24,10.0,NNW,6.9,-,N/A,,Clear,340,2012-12-26 07:55:00
3:15 AM,23.0,14.0,68,30.24,10.0,North,6.9,-,N/A,,Clear,350,2012-12-26 08:15:00
3:35 AM,21.2,12.2,68,30.24,10.0,North,5.8,-,N/A,,Clear,350,2012-12-26 08:35:00
4:55 AM,21.2,12.2,68,30.23,10.0,North,9.2,-,N/A,,Clear,360,2012-12-26 09:55:00
5:15 AM,21.2,12.2,68,30.21,10.0,North,10.4,-,N/A,,Clear,360,2012-12-26 10:15:00
5:35 AM,21.2,12.2,68,30.22,10.0,North,9.2,-,N/A,,Clear,360,2012-12-26 10:35:00
5:55 AM,21.2,12.2,68,30.22,10.0,North,8.1,-,N/A,,Clear,10,2012-12-26 10:55:00
6:15 AM,21.2,12.2,68,30.23,10.0,North,10.4,-,N/A,,Clear,10,2012-12-26 11:15:00
7:15 AM,19.4,10.4,68,30.25,10.0,North,4.6,-,N/A,,Clear,350,2012-12-26 12:15:00
7:35 AM,21.2,12.2,68,30.26,10.0,North,4.6,-,N/A,,Clear,350,2012-12-26 12:35:00
8:15 AM,21.2,12.2,68,30.27,10.0,NNW,4.6,-,N/A,,Clear,340,2012-12-26 13:15:00
8:35 AM,24.8,14.0,64,30.26,10.0,North,6.9,-,N/A,,Clear,360,2012-12-26 13:35:00
8:55 AM,24.8,12.2,59,30.27,10.0,NNE,8.1,-,N/A,,Clear,20,2012-12-26 13:55:00
9:15 AM,26.6,14.0,59,30.27,10.0,NNE,6.9,-,N/A,,Clear,20,2012-12-26 14:15:00
9:55 AM,28.4,15.8,59,30.28,10.0,NE,4.6,-,N/A,,Clear,40,2012-12-26 14:55:00
10:15 AM,28.4,17.6,64,30.27,10.0,North,4.6,-,N/A,,Clear,10,2012-12-26 15:15:00
10:35 AM,30.2,17.6,60,30.26,10.0,NNE,8.1,-,N/A,,Clear,20,2012-12-26 15:35:00
10:55 AM,30.2,19.4,64,30.25,10.0,NNE,6.9,-,N/A,,Clear,30,2012-12-26 15:55:00
11:15 AM,32.0,19.4,60,30.23,10.0,NE,5.8,-,N/A,,Clear,40,2012-12-26 16:15:00
11:35 AM,33.8,21.2,60,30.22,10.0,NE,8.1,-,N/A,,Clear,50,2012-12-26 16:35:00
11:55 AM,33.8,21.2,60,30.22,10.0,East,4.6,-,N/A,,Clear,100,2012-12-26 16:55:00
12:15 PM,33.8,21.2,60,30.21,10.0,Calm,Calm,-,N/A,,Clear,0,2012-12-26 17:15:00
12:35 PM,33.8,21.2,60,30.20,10.0,East,6.9,-,N/A,,Partly Cloudy,80,2012-12-26 17:35:00
12:55 PM,33.8,23.0,65,30.20,10.0,ENE,10.4,-,N/A,,Scattered Clouds,60,2012-12-26 17:55:00
1:15 PM,33.8,21.2,60,30.19,10.0,NE,9.2,-,N/A,,Partly Cloudy,50,2012-12-26 18:15:00
1:35 PM,33.8,23.0,65,30.18,10.0,ENE,8.1,-,N/A,,Partly Cloudy,70,2012-12-26 18:35:00
2:15 PM,33.8,24.8,70,30.18,10.0,ENE,10.4,-,N/A,,Scattered Clouds,70,2012-12-26 19:15:00
2:35 PM,33.8,24.8,70,30.18,10.0,ENE,5.8,-,N/A,,Scattered Clouds,70,2012-12-26 19:35:00
2:55 PM,33.8,24.8,70,30.18,10.0,NE,5.8,-,N/A,,Clear,40,2012-12-26 19:55:00
3:15 PM,33.8,24.8,70,30.17,10.0,ENE,9.2,-,N/A,,Clear,60,2012-12-26 20:15:00
3:35 PM,33.8,24.8,70,30.16,10.0,ENE,5.8,-,N/A,,Mostly Cloudy,60,2012-12-26 20:35:00
3:55 PM,33.8,24.8,70,30.15,10.0,ENE,8.1,-,N/A,,Overcast,70,2012-12-26 20:55:00
4:35 PM,33.8,24.8,70,30.15,10.0,ENE,6.9,-,N/A,,Overcast,60,2012-12-26 21:35:00
4:55 PM,33.8,24.8,70,30.14,10.0,East,5.8,-,N/A,,Mostly Cloudy,80,2012-12-26 21:55:00
5:15 PM,33.8,24.8,70,30.14,10.0,East,10.4,-,N/A,,Overcast,90,2012-12-26 22:15:00
5:35 PM,33.8,24.8,70,30.12,10.0,ENE,8.1,-,N/A,,Overcast,70,2012-12-26 22:35:00
6:35 PM,33.8,24.8,70,30.09,10.0,ENE,9.2,-,N/A,,Overcast,70,2012-12-26 23:35:00
6:55 PM,33.8,26.6,75,30.08,10.0,ENE,9.2,-,N/A,,Overcast,70,2012-12-26 23:55:00
7:15 PM,33.8,26.6,75,30.07,10.0,ENE,11.5,17.3,N/A,,Overcast,70,2012-12-27 00:15:00
7:35 PM,33.8,26.6,75,30.05,10.0,ENE,10.4,16.1,N/A,,Overcast,70,2012-12-27 00:35:00
8:35 PM,33.8,28.4,81,30.00,1.0,ENE,9.2,-,N/A,,Overcast,60,2012-12-27 01:35:00
8:55 PM,33.8,28.4,81,29.98,0.8,ENE,13.8,17.3,N/A,,Overcast,70,2012-12-27 01:55:00
9:15 PM,33.8,28.4,81,29.97,1.0,ENE,10.4,18.4,N/A,,Overcast,70,2012-12-27 02:15:00
10:15 PM,33.8,28.4,81,29.91,1.0,ENE,11.5,20.7,N/A,,Overcast,70,2012-12-27 03:15:00
10:35 PM,33.8,30.2,87,29.90,1.5,East,11.5,19.6,N/A,,Overcast,80,2012-12-27 03:35:00
10:55 PM,33.8,30.2,87,29.91,1.2,East,10.4,17.3,N/A,,Overcast,80,2012-12-27 03:55:00
11:15 PM,33.8,30.2,87,29.89,1.2,ENE,12.7,18.4,N/A,,Overcast,70,2012-12-27 04:15:00
11:55 PM,33.8,30.2,87,29.82,4.0,ENE,10.4,21.9,0.04,,Overcast,70,2012-12-27 04:55:00